EW2485 Weather Reports


time (UTC)temp
F
wind
direction
speed
knots
gust
knots
rain 1hr
in
rain 24hr
in
rain mn
in
humidity
%
barometer
mb
20260504231553 70 167 5.2 14.8 0.00 0.00 0.00 43 1004.7
20260504230017 71 165 7.8 17.4 0.00 0.00 0.00 41 1004.7
20260504224543 73 212 6.1 13.0 0.00 0.00 0.00 35 1004.7
20260504223105 73 202 4.3 11.3 0.00 0.00 0.00 36 1004.9
20260504221525 74 218 5.2 12.2 0.00 0.00 0.00 35 1004.8
20260504220045 74 234 10.4 17.4 0.00 0.00 0.00 34 1004.9
20260504214616 74 195 6.1 20.9 0.00 0.00 0.00 35 1005.0
20260504213039 74 279 6.1 17.4 0.00 0.00 0.00 35 1004.9
20260504211600 74 306 8.7 18.2 0.00 0.00 0.00 35 1005.0
20260504210040 75 253 8.7 13.9 0.00 0.00 0.00 35 1005.3
20260504204603 73 231 8.7 20.0 0.00 0.00 0.00 37 1005.4
20260504203027 72 252 5.2 18.2 0.00 0.00 0.00 38 1005.5
20260504201552 72 230 7.0 26.9 0.00 0.00 0.00 40 1005.8
20260504194522 73 211 11.3 25.2 0.00 0.00 0.00 41 1006.2
20260504193046 73 181 6.1 22.6 0.00 0.00 0.00 41 1006.5
20260504191515 71 241 11.3 20.9 0.00 0.00 0.00 42 1006.5
20260504190040 71 243 5.2 16.5 0.00 0.00 0.00 43 1006.8
20260504184503 71 247 9.6 20.0 0.00 0.00 0.00 43 1006.9
20260504183046 70 168 7.8 16.5 0.00 0.00 0.00 45 1007.0
20260504181532 71 239 9.6 18.2 0.00 0.00 0.00 44 1007.1
20260504180055 70 220 7.8 19.1 0.00 0.00 0.00 46 1007.2
20260504174526 68 259 11.3 24.3 0.00 0.00 0.00 47 1007.5
20260504173043 69 248 6.1 16.5 0.00 0.00 0.00 50 1007.6
20260504171507 68 221 8.7 20.0 0.00 0.00 0.00 47 1007.6
20260504120110 48 182 7.0 15.6 0.00 0.00 0.00 65 1010.6
20260504081544 46 210 5.2 10.4 0.00 0.00 0.00 67 1010.8
20260504044550 45 113 1.7 2.6 0.00 0.00 0.00 70 1011.3
20260504043002 46 138 1.7 3.5 0.00 0.00 0.00 67 1011.2
20260504041541 48 135 0.9 2.6 0.00 0.00 0.00 66 1011.2
20260504040009 48 223 0.9 2.6 0.00 0.00 0.00 63 1011.2
20260504034533 49 135 0.9 2.6 0.00 0.00 0.00 62 1011.3
20260504033052 50 149 1.7 5.2 0.00 0.00 0.00 60 1011.4
20260504031501 51 152 1.7 3.5 0.00 0.00 0.00 56 1011.5
20260504030031 51 324 0.9 2.6 0.00 0.00 0.00 55 1011.5
20260504024538 51 219 0.9 3.5 0.00 0.00 0.00 55 1011.6
20260504023051 52 250 1.7 6.1 0.00 0.00 0.00 55 1011.8
20260504021539 52 165 1.7 10.4 0.00 0.00 0.00 55 1011.9
20260504020057 52 189 3.5 10.4 0.00 0.00 0.00 55 1011.9
20260504014512 52 264 7.0 16.5 0.00 0.00 0.00 55 1011.9
20260504013047 52 198 8.7 14.8 0.00 0.00 0.00 55 1012.1
20260504011556 53 210 7.8 18.2 0.00 0.00 0.00 54 1011.8
20260504010023 52 232 5.2 17.4 0.00 0.00 0.00 54 1011.5
20260504004543 52 269 2.6 16.5 0.00 0.00 0.00 56 1011.8
20260504003100 52 283 7.0 14.8 0.00 0.00 0.00 55 1011.8
20260504001511 52 319 7.8 26.1 0.00 0.00 0.00 54 1011.5
20260504000050 53 304 4.3 13.0 0.00 0.00 0.00 54 1011.5
20260503234538 53 237 4.3 21.7 0.00 0.00 0.00 54 1011.5
20260503233014 54 236 7.0 20.0 0.00 0.00 0.00 51 1011.0